QPF
0.08 0.07 0.05 0.04 0.04 0.05 0.04 0.03 0.03 0.05 0.06 0.07 0.09 0.10 0.11 0.12 0.12 0.12 0.12 0.10 0.11 0.10 0.09 0.08 0.07 0.07 0.06 0.06 0.06 0.06 0.05 0.04 0.04 0.03 0.01 0.01 0.00 0.00 0.01 0.01 0.01 0.01 0.01
0.07 0.07 0.06 0.05 0.05 0.04 0.04 0.04 0.04 0.05 0.06 0.07 0.08 0.09 0.11 0.12 0.10 0.08 0.07 0.07 0.06 0.06 0.05 0.05 0.06 0.05 0.04 0.04 0.04 0.04 0.04 0.03 0.03 0.02 0.02 0.01 0.00 0.00 0.00 0.01 0.01 0.01 0.01
0.09 0.09 0.08 0.05 0.04 0.05 0.06 0.06 0.06 0.06 0.06 0.06 0.05 0.05 0.07 0.08 0.08 0.07 0.06 0.05 0.05 0.04 0.04 0.04 0.04 0.03 0.03 0.02 0.02 0.02 0.02 0.02 0.01 0.01 0.01 0.01 0.01 0.01 0.00 0.01 0.01 0.01 0.01
0.06 0.07 0.07 0.05 0.05 0.06 0.06 0.05 0.05 0.05 0.05 0.05 0.04 0.04 0.05 0.07 0.07 0.07 0.07 0.06 0.05 0.04 0.05 0.04 0.04 0.03 0.02 0.01 0.01 0.00 0.01 0.01 0.01 0.00 0.00 0.00 0.00 0.00 0.00 0.01 0.01 0.01 0.01
0.04 0.03 0.03 0.03 0.04 0.04 0.04 0.04 0.04 0.04 0.03 0.03 0.04 0.06 0.06 0.08 0.08 0.07 0.08 0.08 0.06 0.06 0.06 0.04 0.03 0.02 0.02 0.01 0.01 0.01 0.00 0.00 0.00 0.00 0.00 0.00 0.00 0.00 0.00 0.00 0.01 0.01 0.02
0.02 0.02 0.03 0.03 0.04 0.04 0.03 0.02 0.02 0.02 0.02 0.03 0.03 0.04 0.05 0.07 0.08 0.06 0.05 0.06 0.06 0.06 0.06 0.04 0.03 0.03 0.01 0.01 0.01 0.00 0.00 0.00 0.00 0.00 0.00 0.00 0.00 0.00 0.00 0.00 0.00 0.00 0.01
0.00 0.01 0.01 0.02 0.02 0.02 0.02 0.01 0.01 0.01 0.01 0.02 0.02 0.03 0.03 0.05 0.05 0.04 0.04 0.04 0.04 0.04 0.05 0.04 0.03 0.03 0.02 0.01 0.01 0.00 0.00 0.00 0.00 0.00 0.00 0.00 0.00 0.00 0.00 0.00 0.00 0.00 0.00
0.00 0.00 0.00 0.01 0.00 0.00 0.00 0.00 0.00 0.00 0.00 0.00 0.01 0.02 0.03 0.03 0.03 0.03 0.04 0.03 0.04 0.04 0.04 0.05 0.04 0.04 0.03 0.02 0.01 0.01 0.00 0.00 0.00 0.00 0.00 0.00 0.00 0.00 0.00 0.00 0.00 0.00 0.00
0.00 0.00 0.00 0.00 0.00 0.00 0.00 0.00 0.00 0.00 0.00 0.00 0.01 0.01 0.02 0.03 0.03 0.03 0.03 0.02 0.03 0.04 0.04 0.05 0.04 0.03 0.03 0.03 0.02 0.01 0.01 0.01 0.01 0.01 0.01 0.00 0.00 0.00 0.00 0.00 0.00 0.00 0.00
0.00 0.00 0.00 0.00 0.00 0.00 0.00 0.00 0.00 0.00 0.00 0.00 0.00 0.00 0.01 0.02 0.02 0.02 0.03 0.02 0.02 0.03 0.03 0.03 0.03 0.03 0.04 0.04 0.02 0.01 0.01 0.02 0.01 0.01 0.01 0.00 0.00 0.00 0.00 0.00 0.00 0.00 0.00
0.00 0.00 0.00 0.00 0.00 0.00 0.00 0.00 0.00 0.00 0.00 0.00 0.00 0.00 0.00 0.01 0.01 0.02 0.03 0.02 0.02 0.02 0.02 0.02 0.03 0.03 0.04 0.04 0.03 0.02 0.02 0.02 0.01 0.01 0.01 0.01 0.01 0.01 0.00 0.00 0.00 0.00 0.00
0.00 0.00 0.00 0.00 0.00 0.00 0.00 0.00 0.00 0.00 0.00 0.00 0.00 0.00 0.00 0.00 0.00 0.01 0.03 0.02 0.02 0.01 0.02 0.02 0.03 0.03 0.03 0.03 0.02 0.02 0.03 0.02 0.01 0.01 0.01 0.01 0.01 0.01 0.00 0.00 0.00 0.01 0.01
0.00 0.00 0.00 0.00 0.00 0.00 0.00 0.00 0.00 0.00 0.00 0.00 0.00 0.00 0.00 0.01 0.01 0.01 0.02 0.02 0.01 0.01 0.01 0.02 0.03 0.04 0.04 0.03 0.03 0.03 0.03 0.02 0.01 0.01 0.01 0.00 0.00 0.00 0.00 0.00 0.00 0.01 0.00
0.00 0.00 0.00 0.00 0.00 0.00 0.00 0.00 0.00 0.00 0.00 0.00 0.00 0.00 0.00 0.00 0.01 0.01 0.01 0.01 0.01 0.01 0.01 0.01 0.02 0.04 0.04 0.04 0.03 0.02 0.03 0.03 0.02 0.00 0.00 0.00 0.00 0.00 0.00 0.00 0.00 0.00 0.00
0.00 0.00 0.00 0.00 0.00 0.00 0.00 0.00 0.00 0.00 0.00 0.00 0.00 0.00 0.00 0.00 0.00 0.00 0.00 0.00 0.01 0.01 0.01 0.01 0.02 0.03 0.03 0.02 0.01 0.01 0.01 0.02 0.02 0.01 0.01 0.01 0.00 0.00 0.00 0.00 0.00 0.01 0.00
0.00 0.00 0.00 0.00 0.00 0.00 0.00 0.00 0.00 0.00 0.00 0.00 0.00 0.00 0.00 0.00 0.00 0.00 0.01 0.01 0.01 0.01 0.01 0.01 0.01 0.02 0.02 0.01 0.01 0.01 0.01 0.01 0.01 0.01 0.00 0.01 0.01 0.00 0.00 0.00 0.00 0.01 0.01
0.00 0.00 0.00 0.00 0.00 0.00 0.00 0.00 0.00 0.00 0.00 0.00 0.00 0.00 0.00 0.00 0.00 0.00 0.01 0.01 0.00 0.01 0.01 0.01 0.00 0.01 0.01 0.01 0.01 0.00 0.00 0.00 0.00 0.00 0.00 0.00 0.00 0.00 0.00 0.00 0.00 0.00 0.00
0.00 0.00 0.00 0.00 0.00 0.00 0.00 0.00 0.00 0.00 0.00 0.00 0.00 0.00 0.00 0.00 0.00 0.00 0.00 0.00 0.00 0.00 0.00 0.00 0.00 0.00 0.00 0.00 0.00 0.00 0.00 0.00 0.00 0.00 0.00 0.00 0.00 0.00 0.00 0.00 0.00 0.00 0.00
0.00 0.00 0.00 0.00 0.00 0.00 0.00 0.00 0.00 0.00 0.00 0.00 0.00 0.00 0.00 0.00 0.00 0.00 0.00 0.00 0.00 0.00 0.00 0.00 0.00 0.00 0.00 0.00 0.00 0.00 0.00 0.00 0.00 0.00 0.00 0.00 0.00 0.00 0.00 0.00 0.00 0.00 0.00
0.00 0.00 0.00 0.00 0.00 0.00 0.00 0.00 0.00 0.00 0.00 0.00 0.00 0.00 0.00 0.00 0.00 0.00 0.00 0.00 0.00 0.00 0.00 0.00 0.00 0.00 0.00 0.00 0.00 0.00 0.00 0.00 0.00 0.00 0.00 0.00 0.00 0.00 0.00 0.00 0.00 0.00 0.00
0.00 0.00 0.00 0.00 0.00 0.00 0.00 0.00 0.00 0.00 0.00 0.00 0.00 0.00 0.00 0.00 0.00 0.00 0.00 0.00 0.00 0.00 0.00 0.00 0.00 0.00 0.00 0.00 0.00 0.00 0.00 0.00 0.00 0.00 0.00 0.00 0.00 0.00 0.00 0.00 0.00 0.00 0.00
0.00 0.00 0.00 0.00 0.00 0.00 0.00 0.00 0.00 0.00 0.00 0.00 0.00 0.00 0.00 0.00 0.00 0.00 0.00 0.00 0.00 0.00 0.00 0.00 0.00 0.00 0.00 0.00 0.00 0.00 0.00 0.00 0.00 0.00 0.00 0.00 0.00 0.00 0.00 0.00 0.00 0.00 0.00
0.00 0.00 0.00 0.00 0.00 0.00 0.00 0.00 0.00 0.00 0.00 0.00 0.00 0.00 0.00 0.00 0.00 0.00 0.00 0.00 0.00 0.00 0.00 0.00 0.00 0.00 0.00 0.00 0.00 0.00 0.00 0.00 0.00 0.00 0.00 0.00 0.00 0.00 0.00 0.00 0.00 0.00 0.00
0.00 0.00 0.00 0.00 0.00 0.00 0.00 0.00 0.00 0.00 0.00 0.00 0.00 0.00 0.00 0.00 0.00 0.00 0.00 0.00 0.00 0.00 0.00 0.00 0.00 0.00 0.00 0.00 0.00 0.00 0.00 0.00 0.00 0.00 0.00 0.00 0.00 0.00 0.00 0.00 0.00 0.00 0.00
0.00 0.00 0.00 0.00 0.00 0.00 0.00 0.00 0.00 0.00 0.00 0.00 0.00 0.00 0.00 0.00 0.00 0.00 0.00 0.00 0.00 0.00 0.00 0.00 0.00 0.00 0.00 0.00 0.00 0.00 0.00 0.00 0.00 0.00 0.00 0.00 0.00 0.00 0.00 0.00 0.00 0.00 0.00
0.00 0.00 0.00 0.00 0.00 0.00 0.00 0.00 0.00 0.00 0.00 0.00 0.00 0.00 0.00 0.00 0.00 0.00 0.00 0.00 0.00 0.00 0.00 0.00 0.00 0.00 0.00 0.00 0.00 0.00 0.00 0.00 0.00 0.00 0.00 0.00 0.00 0.00 0.00 0.00 0.00 0.00 0.00
MSLP
1015.21 1014.78 1014.35 1013.92 1013.51 1013.15 1012.85 1012.65 1012.54 1012.52 1012.59 1012.72 1012.88 1013.04 1013.19 1013.32 1013.43 1013.54 1013.67 1013.81 1013.99 1014.20 1014.43 1014.66 1014.87 1015.07 1015.24 1015.39 1015.54 1015.68 1015.84 1016.01 1016.18 1016.33 1016.45 1016.51 1016.52 1016.47 1016.41 1016.35 1016.33 1016.40 1016.56
1015.84 1015.38 1014.93 1014.50 1014.10 1013.75 1013.46 1013.25 1013.13 1013.08 1013.09 1013.14 1013.21 1013.29 1013.36 1013.42 1013.48 1013.55 1013.63 1013.74 1013.88 1014.04 1014.21 1014.38 1014.53 1014.68 1014.81 1014.95 1015.10 1015.29 1015.51 1015.76 1016.02 1016.26 1016.46 1016.60 1016.65 1016.64 1016.58 1016.51 1016.47 1016.50 1016.62
1016.54 1016.07 1015.61 1015.18 1014.77 1014.42 1014.12 1013.89 1013.73 1013.63 1013.57 1013.55 1013.53 1013.53 1013.52 1013.52 1013.52 1013.55 1013.61 1013.70 1013.81 1013.94 1014.08 1014.20 1014.32 1014.43 1014.53 1014.66 1014.83 1015.04 1015.31 1015.62 1015.95 1016.27 1016.53 1016.73 1016.83 1016.85 1016.81 1016.75 1016.70 1016.71 1016.80
1017.28 1016.82 1016.36 1015.93 1015.52 1015.15 1014.83 1014.57 1014.36 1014.20 1014.07 1013.96 1013.87 1013.78 1013.71 1013.64 1013.61 1013.61 1013.64 1013.72 1013.82 1013.93 1014.05 1014.16 1014.25 1014.33 1014.42 1014.54 1014.71 1014.94 1015.23 1015.57 1015.94 1016.29 1016.60 1016.84 1016.98 1017.03 1017.02 1016.98 1016.94 1016.95 1017.04
1018.04 1017.60 1017.16 1016.72 1016.31 1015.93 1015.58 1015.28 1015.03 1014.81 1014.61 1014.44 1014.27 1014.12 1013.98 1013.87 1013.79 1013.76 1013.78 1013.84 1013.93 1014.04 1014.15 1014.24 1014.32 1014.39 1014.47 1014.57 1014.73 1014.95 1015.23 1015.57 1015.93 1016.30 1016.62 1016.88 1017.04 1017.13 1017.15 1017.14 1017.13 1017.16 1017.26
1018.75 1018.37 1017.96 1017.54 1017.13 1016.73 1016.37 1016.04 1015.74 1015.48 1015.23 1015.00 1014.78 1014.57 1014.39 1014.23 1014.12 1014.06 1014.06 1014.10 1014.18 1014.28 1014.37 1014.46 1014.52 1014.58 1014.63 1014.72 1014.84 1015.03 1015.28 1015.58 1015.92 1016.26 1016.58 1016.83 1017.02 1017.13 1017.19 1017.22 1017.25 1017.32 1017.45
1019.41 1019.08 1018.72 1018.33 1017.94 1017.55 1017.18 1016.83 1016.52 1016.22 1015.95 1015.68 1015.42 1015.18 1014.96 1014.77 1014.62 1014.53 1014.50 1014.51 1014.57 1014.64 1014.72 1014.79 1014.83 1014.87 1014.89 1014.94 1015.03 1015.16 1015.36 1015.61 1015.90 1016.20 1016.49 1016.73 1016.93 1017.07 1017.17 1017.24 1017.33 1017.45 1017.61
1019.98 1019.73 1019.43 1019.08 1018.71 1018.34 1017.98 1017.64 1017.33 1017.03 1016.75 1016.47 1016.20 1015.93 1015.68 1015.46 1015.28 1015.16 1015.08 1015.06 1015.08 1015.12 1015.17 1015.21 1015.23 1015.23 1015.22 1015.23 1015.26 1015.34 1015.48 1015.67 1015.90 1016.15 1016.41 1016.64 1016.84 1017.01 1017.15 1017.28 1017.41 1017.58 1017.78
1020.47 1020.29 1020.05 1019.76 1019.44 1019.10 1018.77 1018.46 1018.16 1017.88 1017.61 1017.33 1017.06 1016.79 1016.52 1016.27 1016.06 1015.89 1015.78 1015.71 1015.68 1015.68 1015.69 1015.69 1015.67 1015.64 1015.59 1015.56 1015.54 1015.57 1015.65 1015.78 1015.96 1016.17 1016.41 1016.64 1016.85 1017.04 1017.22 1017.39 1017.57 1017.77 1017.99
1020.87 1020.77 1020.59 1020.36 1020.09 1019.81 1019.52 1019.25 1018.98 1018.73 1018.48 1018.22 1017.95 1017.68 1017.40 1017.13 1016.89 1016.68 1016.52 1016.40 1016.33 1016.28 1016.24 1016.20 1016.15 1016.08 1016.00 1015.93 1015.88 1015.86 1015.90 1015.99 1016.13 1016.32 1016.54 1016.77 1017.00 1017.22 1017.44 1017.64 1017.85 1018.06 1018.29
1021.20 1021.16 1021.05 1020.88 1020.68 1020.45 1020.21 1019.98 1019.76 1019.54 1019.32 1019.08 1018.82 1018.54 1018.26 1017.97 1017.70 1017.45 1017.25 1017.09 1016.97 1016.88 1016.81 1016.73 1016.65 1016.56 1016.46 1016.36 1016.28 1016.24 1016.25 1016.31 1016.44 1016.62 1016.84 1017.08 1017.33 1017.57 1017.81 1018.04 1018.25 1018.47 1018.68
1021.45 1021.48 1021.43 1021.32 1021.18 1021.01 1020.83 1020.65 1020.47 1020.28 1020.08 1019.86 1019.61 1019.33 1019.04 1018.73 1018.44 1018.18 1017.94 1017.76 1017.60 1017.48 1017.38 1017.29 1017.19 1017.08 1016.97 1016.86 1016.76 1016.71 1016.71 1016.77 1016.89 1017.07 1017.29 1017.55 1017.82 1018.08 1018.33 1018.56 1018.78 1018.97 1019.16
1021.65 1021.72 1021.72 1021.68 1021.59 1021.48 1021.35 1021.22 1021.08 1020.92 1020.74 1020.53 1020.29 1020.01 1019.71 1019.41 1019.10 1018.83 1018.58 1018.38 1018.22 1018.08 1017.98 1017.87 1017.77 1017.66 1017.55 1017.44 1017.34 1017.29 1017.28 1017.34 1017.46 1017.65 1017.88 1018.15 1018.42 1018.70 1018.95 1019.17 1019.37 1019.54 1019.68
1021.76 1021.87 1021.92 1021.93 1021.90 1021.84 1021.77 1021.68 1021.57 1021.44 1021.28 1021.09 1020.85 1020.58 1020.28 1019.98 1019.69 1019.41 1019.18 1018.98 1018.83 1018.70 1018.60 1018.51 1018.42 1018.32 1018.21 1018.11 1018.02 1017.97 1017.97 1018.02 1018.15 1018.33 1018.56 1018.82 1019.10 1019.37 1019.61 1019.82 1019.99 1020.12 1020.22
1021.78 1021.92 1022.01 1022.07 1022.09 1022.09 1022.07 1022.02 1021.95 1021.84 1021.70 1021.52 1021.30 1021.04 1020.76 1020.48 1020.21 1019.96 1019.75 1019.58 1019.45 1019.36 1019.28 1019.22 1019.14 1019.06 1018.97 1018.88 1018.80 1018.75 1018.74 1018.79 1018.90 1019.07 1019.29 1019.54 1019.80 1020.04 1020.27 1020.45 1020.59 1020.69 1020.76
1021.70 1021.85 1021.97 1022.07 1022.15 1022.20 1022.22 1022.22 1022.19 1022.11 1022.00 1021.84 1021.64 1021.41 1021.17 1020.92 1020.69 1020.48 1020.32 1020.20 1020.11 1020.06 1020.02 1019.99 1019.94 1019.88 1019.81 1019.73 1019.65 1019.60 1019.58 1019.61 1019.70 1019.84 1020.03 1020.25 1020.48 1020.69 1020.89 1021.05 1021.16 1021.24 1021.29
1021.50 1021.66 1021.80 1021.94 1022.06 1022.16 1022.23 1022.27 1022.28 1022.25 1022.17 1022.05 1021.89 1021.70 1021.50 1021.31 1021.13 1020.99 1020.88 1020.82 1020.79 1020.78 1020.79 1020.79 1020.78 1020.74 1020.68 1020.61 1020.54 1020.47 1020.44 1020.45 1020.51 1020.61 1020.76 1020.93 1021.12 1021.30 1021.47 1021.60 1021.69 1021.76 1021.79
1021.20 1021.35 1021.51 1021.67 1021.83 1021.97 1022.09 1022.18 1022.23 1022.24 1022.21 1022.14 1022.03 1021.90 1021.77 1021.64 1021.53 1021.45 1021.42 1021.41 1021.44 1021.49 1021.54 1021.57 1021.59 1021.58 1021.54 1021.47 1021.40 1021.33 1021.28 1021.26 1021.28 1021.34 1021.44 1021.57 1021.72 1021.86 1021.99 1022.10 1022.18 1022.24 1022.28
1020.83 1020.97 1021.13 1021.30 1021.48 1021.65 1021.81 1021.94 1022.04 1022.10 1022.12 1022.10 1022.06 1022.00 1021.93 1021.88 1021.84 1021.84 1021.87 1021.93 1022.01 1022.10 1022.19 1022.26 1022.30 1022.31 1022.29 1022.23 1022.16 1022.09 1022.02 1021.98 1021.97 1022.00 1022.06 1022.14 1022.25 1022.35 1022.46 1022.55 1022.62 1022.69 1022.74
1020.44 1020.55 1020.70 1020.87 1021.06 1021.25 1021.43 1021.59 1021.72 1021.82 1021.89 1021.93 1021.95 1021.96 1021.97 1021.99 1022.03 1022.10 1022.19 1022.31 1022.43 1022.56 1022.68 1022.78 1022.84 1022.87 1022.86 1022.82 1022.76 1022.69 1022.62 1022.56 1022.53 1022.53 1022.56 1022.61 1022.67 1022.75 1022.83 1022.91 1022.99 1023.06 1023.13
1020.06 1020.15 1020.27 1020.43 1020.60 1020.79 1020.97 1021.14 1021.29 1021.43 1021.54 1021.63 1021.71 1021.78 1021.86 1021.95 1022.06 1022.19 1022.33 1022.49 1022.66 1022.82 1022.96 1023.08 1023.16 1023.20 1023.21 1023.18 1023.13 1023.07 1023.01 1022.96 1022.92 1022.90 1022.90 1022.93 1022.97 1023.03 1023.09 1023.17 1023.25 1023.33 1023.42
1019.74 1019.80 1019.89 1020.02 1020.16 1020.32 1020.48 1020.65 1020.80 1020.94 1021.08 1021.20 1021.33 1021.46 1021.59 1021.74 1021.91 1022.09 1022.28 1022.48 1022.67 1022.85 1023.00 1023.13 1023.22 1023.28 1023.30 1023.29 1023.26 1023.22 1023.17 1023.13 1023.09 1023.08 1023.07 1023.09 1023.12 1023.16 1023.22 1023.29 1023.38 1023.48 1023.59
1019.51 1019.53 1019.59 1019.67 1019.77 1019.88 1020.01 1020.14 1020.27 1020.40 1020.54 1020.68 1020.84 1021.00 1021.18 1021.38 1021.59 1021.81 1022.04 1022.26 1022.47 1022.66 1022.82 1022.96 1023.06 1023.12 1023.16 1023.17 1023.16 1023.14 1023.12 1023.09 1023.08 1023.07 1023.07 1023.08 1023.11 1023.15 1023.21 1023.28 1023.37 1023.48 1023.61
1019.34 1019.33 1019.35 1019.38 1019.43 1019.48 1019.55 1019.63 1019.73 1019.83 1019.96 1020.10 1020.26 1020.45 1020.66 1020.89 1021.13 1021.39 1021.64 1021.88 1022.10 1022.30 1022.47 1022.61 1022.72 1022.80 1022.85 1022.88 1022.89 1022.90 1022.90 1022.91 1022.91 1022.92 1022.93 1022.96 1022.99 1023.03 1023.09 1023.16 1023.26 1023.38 1023.53
1019.19 1019.16 1019.14 1019.13 1019.12 1019.12 1019.12 1019.14 1019.19 1019.25 1019.35 1019.47 1019.64 1019.83 1020.06 1020.31 1020.58 1020.85 1021.13 1021.39 1021.63 1021.84 1022.02 1022.16 1022.28 1022.37 1022.44 1022.49 1022.54 1022.57 1022.60 1022.63 1022.66 1022.70 1022.73 1022.76 1022.80 1022.85 1022.92 1023.00 1023.10 1023.22 1023.37
1019.01 1018.97 1018.92 1018.87 1018.80 1018.75 1018.69 1018.66 1018.64 1018.67 1018.72 1018.83 1018.98 1019.17 1019.40 1019.67 1019.96 1020.25 1020.54 1020.82 1021.08 1021.31 1021.50 1021.67 1021.80 1021.91 1022.01 1022.09 1022.16 1022.22 1022.28 1022.35 1022.41 1022.46 1022.52 1022.57 1022.62 1022.68 1022.75 1022.83 1022.93 1023.05 1023.20
Thickness
5645 5649 5654 5658 5662 5667 5670 5672 5675 5677 5678 5679 5679 5679 5679 5679 5679 5678 5676 5676 5675 5675 5675 5675 5674 5674 5674 5674 5674 5673 5673 5672 5669 5671 5675 5678 5680 5682 5684 5684 5685 5685 5684
5640 5644 5647 5651 5655 5659 5661 5664 5666 5668 5670 5670 5671 5671 5671 5671 5670 5670 5670 5669 5668 5667 5668 5667 5667 5668 5667 5667 5667 5667 5667 5666 5665 5664 5667 5670 5673 5675 5676 5677 5678 5678 5678
5635 5638 5641 5645 5648 5650 5653 5656 5658 5660 5661 5662 5663 5663 5663 5662 5663 5663 5663 5662 5662 5661 5661 5661 5661 5661 5660 5661 5661 5660 5660 5660 5660 5660 5660 5662 5664 5667 5669 5670 5671 5671 5672
5632 5634 5636 5639 5641 5643 5646 5648 5650 5652 5652 5653 5654 5655 5655 5655 5655 5655 5655 5655 5655 5655 5655 5655 5655 5655 5655 5655 5655 5655 5654 5654 5654 5655 5655 5655 5658 5660 5662 5662 5662 5663 5664
5630 5632 5633 5635 5637 5639 5640 5642 5643 5644 5645 5645 5646 5646 5647 5648 5649 5649 5648 5649 5648 5648 5649 5649 5649 5650 5651 5651 5651 5650 5650 5649 5649 5649 5649 5650 5651 5653 5654 5655 5654 5654 5655
5629 5630 5631 5633 5634 5635 5636 5636 5637 5638 5638 5639 5639 5639 5640 5641 5643 5643 5643 5642 5641 5641 5641 5642 5643 5644 5646 5647 5647 5647 5647 5646 5645 5644 5644 5645 5646 5647 5648 5648 5647 5647 5646
5628 5628 5629 5630 5631 5631 5632 5632 5632 5632 5633 5632 5632 5632 5633 5635 5637 5638 5637 5636 5635 5635 5635 5635 5637 5638 5639 5640 5641 5642 5642 5643 5643 5642 5641 5640 5641 5641 5642 5641 5641 5640 5639
5628 5628 5628 5628 5628 5628 5628 5627 5626 5626 5625 5625 5625 5625 5626 5628 5630 5630 5630 5628 5628 5628 5628 5629 5630 5631 5633 5634 5635 5634 5634 5635 5637 5637 5637 5637 5637 5637 5637 5636 5635 5634 5633
5629 5628 5627 5626 5625 5624 5623 5621 5621 5620 5619 5619 5618 5618 5619 5620 5622 5623 5622 5621 5620 5620 5621 5623 5624 5626 5629 5629 5629 5628 5628 5628 5630 5631 5631 5631 5632 5632 5632 5631 5629 5628 5626
5629 5628 5627 5625 5623 5621 5619 5618 5617 5616 5614 5614 5612 5612 5612 5612 5614 5615 5615 5614 5613 5613 5614 5616 5619 5621 5623 5623 5623 5623 5622 5621 5623 5623 5624 5624 5625 5625 5625 5625 5624 5622 5620
5631 5629 5627 5625 5623 5620 5617 5615 5614 5612 5611 5609 5608 5606 5606 5606 5607 5608 5608 5607 5606 5606 5607 5609 5611 5615 5616 5617 5618 5617 5617 5617 5616 5617 5616 5617 5617 5617 5617 5617 5617 5617 5615
5633 5630 5627 5624 5622 5619 5616 5614 5612 5610 5608 5605 5604 5603 5602 5601 5602 5602 5602 5602 5601 5601 5600 5602 5604 5608 5610 5611 5611 5612 5612 5612 5611 5611 5610 5609 5609 5609 5609 5610 5610 5609 5608
5635 5631 5627 5624 5621 5618 5616 5612 5610 5607 5605 5602 5600 5599 5598 5598 5598 5598 5598 5597 5597 5596 5596 5597 5599 5601 5603 5604 5605 5606 5606 5606 5606 5605 5603 5603 5603 5603 5604 5604 5604 5603 5602
5637 5632 5628 5625 5621 5618 5615 5612 5609 5606 5603 5601 5599 5597 5596 5596 5595 5595 5595 5594 5594 5593 5593 5594 5595 5596 5597 5598 5599 5599 5599 5600 5599 5598 5597 5597 5598 5599 5599 5599 5598 5598 5596
5639 5635 5630 5626 5622 5618 5615 5611 5609 5606 5603 5600 5598 5596 5595 5594 5594 5595 5594 5594 5593 5593 5593 5592 5592 5592 5592 5592 5593 5593 5593 5593 5593 5592 5593 5593 5594 5594 5594 5594 5594 5593 5590
5642 5637 5632 5628 5624 5620 5616 5613 5611 5608 5606 5604 5602 5600 5597 5596 5596 5596 5596 5595 5595 5594 5593 5590 5589 5588 5588 5588 5588 5588 5587 5587 5588 5589 5589 5589 5589 5590 5590 5590 5589 5588 5585
5646 5641 5636 5632 5627 5623 5620 5616 5613 5611 5609 5607 5605 5603 5601 5599 5598 5597 5597 5596 5595 5595 5592 5589 5587 5586 5585 5585 5585 5584 5584 5584 5585 5586 5586 5586 5587 5587 5587 5586 5585 5584 5582
5649 5646 5641 5636 5632 5628 5624 5620 5616 5614 5611 5609 5607 5605 5604 5602 5601 5600 5599 5598 5594 5592 5590 5588 5586 5585 5585 5584 5584 5583 5583 5584 5584 5584 5585 5585 5585 5585 5584 5583 5582 5581 5580
5653 5649 5645 5641 5637 5633 5629 5625 5621 5618 5615 5612 5610 5608 5607 5605 5604 5602 5601 5598 5594 5592 5590 5588 5588 5587 5586 5586 5585 5585 5584 5584 5584 5584 5584 5584 5583 5583 5582 5581 5580 5580 5578
5656 5654 5650 5645 5642 5638 5634 5630 5626 5623 5620 5617 5614 5612 5610 5608 5605 5603 5601 5599 5596 5594 5592 5591 5590 5589 5589 5588 5587 5586 5585 5585 5584 5584 5584 5583 5583 5583 5582 5581 5580 5578 5577
5658 5656 5654 5650 5646 5642 5639 5635 5632 5628 5625 5622 5620 5618 5616 5612 5609 5606 5604 5602 5600 5598 5596 5595 5593 5592 5591 5590 5589 5588 5588 5586 5586 5585 5585 5584 5584 5582 5581 5580 5579 5577 5576
5659 5657 5655 5652 5650 5647 5643 5640 5637 5633 5630 5628 5625 5622 5621 5616 5613 5611 5608 5607 5605 5603 5601 5599 5598 5596 5595 5594 5593 5591 5590 5589 5588 5587 5586 5585 5584 5583 5582 5580 5578 5577 5575
5660 5658 5657 5655 5653 5651 5648 5645 5642 5639 5636 5633 5630 5627 5624 5621 5618 5616 5613 5611 5609 5607 5606 5604 5602 5600 5599 5598 5596 5595 5593 5592 5590 5589 5588 5587 5585 5584 5582 5580 5579 5576 5574
5661 5659 5658 5656 5654 5652 5650 5648 5646 5643 5641 5638 5635 5632 5629 5626 5624 5621 5619 5616 5614 5612 5610 5608 5606 5604 5603 5601 5600 5598 5596 5595 5593 5591 5590 5588 5586 5585 5583 5580 5578 5576 5573
5660 5659 5658 5657 5656 5654 5653 5651 5649 5647 5645 5643 5641 5638 5635 5632 5629 5627 5624 5621 5619 5616 5614 5612 5610 5608 5606 5604 5602 5601 5599 5597 5596 5594 5592 5590 5588 5586 5583 5581 5578 5575 5573
5659 5658 5658 5657 5656 5655 5654 5653 5652 5650 5648 5647 5645 5643 5640 5637 5634 5631 5628 5625 5622 5620 5617 5615 5613 5611 5609 5607 5605 5603 5601 5600 5598 5596 5594 5592 5589 5586 5584 5581 5579 5575 5572